To NAV CANADA Home Page Login to a new session Search on AWWS site Feedback and Comments Disclaimer Vers la page française équivalente Tips FAQ What's new on the site To the Forecasts and Observations / NOTAM section To "File a Flight Plan" website Publications and other links Update of the User's profile FIC Telephone Numbers My Weather Data Folder Route Weather Data Regional Weather Data Local Weather Data To the Forecasts and Observations / NOTAM section
Request Generated 04/24/2014 at 14:49:03 UTC . Weather information available at that time is displayed.

METAR/TAF

LYNN LAKE/MB    (show WxCam)

SPECI CYYL 241407Z AUTO 09015G21KT 9SM OVC011 M07/M10 A3017 RMK
SLP242=
METAR CYYL 241400Z AUTO 10017G23KT 9SM OVC009 M07/M10 A3017 RMK MAX
WND 08018KT AT 1317Z SLP242=
METAR CYYL 241300Z AUTO 07014G21KT 9SM OVC009 M07/M09 A3016 RMK
SLP237=
METAR CYYL 241200Z AUTO 08012G17KT 9SM OVC009 M07/M09 A3017 RMK
SLP241=

TAF CYYL 241238Z 2413/2501 08012KT P6SM OVC012 TEMPO 2413/2416 BKN008
FM241600 08015G25KT P6SM SCT015 TEMPO 2416/2501 BKN015
RMK FCST BASED ON AUTO OBS. NXT FCST BY 241900Z=
Your time UTC time
Weather data provided by Environment Canada and NAV CANADA